• In Belarus
  • List of Countries
  • For 7 days
  • Water Temperature
  • Satellite Maps
  • Weather Map
  • Weather Widgets
  • user-avatar
    Login

    Hourly Weather Burg bei Magdeburg

    Today, 19 November, Monday

    Time Temperature Precipitation Wind Pressure Humidity
    00:00 +4°C° 0 mm 4 mps 764 mmHg 85%
    01:00 +3°C° 0 mm 3 mps 764 mmHg 86%
    02:00 +3°C° 0 mm 3 mps 763 mmHg 86%
    03:00 +3°C° 0 mm 4 mps 763 mmHg 85%
    04:00 +3°C° 0 mm 4 mps 763 mmHg 85%
    05:00 +2°C° 0.1 mm 5 mps 762 mmHg 84%
    06:00 +2°C° 0.1 mm 5 mps 762 mmHg 84%
    07:00 +2°C° 0.1 mm 5 mps 762 mmHg 84%
    08:00 +2°C° 0 mm 5 mps 762 mmHg 81%
    09:00 +2°C° 0 mm 6 mps 762 mmHg 79%
    10:00 +3°C° 0 mm 6 mps 762 mmHg 77%
    11:00 +3°C° 0.1 mm 6 mps 762 mmHg 75%
    12:00 +3°C° 0.1 mm 6 mps 762 mmHg 73%
    13:00 +3°C° 0.1 mm 7 mps 762 mmHg 71%
    14:00 +3°C° 0.1 mm 6 mps 762 mmHg 71%
    15:00 +3°C° 0.1 mm 6 mps 762 mmHg 71%
    16:00 +3°C° 0.1 mm 6 mps 761 mmHg 71%
    17:00 +2°C° 0 mm 6 mps 761 mmHg 72%
    18:00 +2°C° 0 mm 6 mps 761 mmHg 73%
    19:00 +1°C° 0 mm 6 mps 762 mmHg 74%
    20:00 +1°C° 0 mm 6 mps 762 mmHg 74%
    21:00 +1°C° 0 mm 6 mps 762 mmHg 74%
    22:00 +1°C° 0 mm 6 mps 762 mmHg 74%
    23:00 +1°C° 0 mm 6 mps 761 mmHg 74%

    Tomorrow, 20 November, Tuesday

    Time Temperature Precipitation Wind Pressure Humidity
    00:00 +1°C° 0 mm 6 mps 761 mmHg 74%
    01:00 0°C° 0 mm 7 mps 761 mmHg 75%
    02:00 -1°C° 0 mm 7 mps 760 mmHg 74%
    03:00 -1°C° 0 mm 7 mps 760 mmHg 74%
    04:00 -1°C° 0 mm 7 mps 760 mmHg 74%
    05:00 -1°C° 0 mm 7 mps 760 mmHg 74%
    06:00 -1°C° 0 mm 7 mps 759 mmHg 74%
    07:00 -1°C° 0 mm 7 mps 759 mmHg 73%
    08:00 -1°C° 0 mm 7 mps 759 mmHg 72%
    09:00 -1°C° 0 mm 8 mps 759 mmHg 71%
    10:00 -1°C° 0 mm 8 mps 758 mmHg 70%
    11:00 0°C° 0 mm 7 mps 758 mmHg 69%
    12:00 0°C° 0 mm 7 mps 758 mmHg 68%
    13:00 0°C° 0 mm 7 mps 757 mmHg 68%
    14:00 0°C° 0.4 mm 7 mps 757 mmHg 70%
    15:00 +1°C° 0.4 mm 6 mps 757 mmHg 72%
    16:00 -1°C° 0.4 mm 6 mps 757 mmHg 75%
    17:00 -1°C° 0.8 mm 6 mps 757 mmHg 77%
    18:00 -1°C° 0.8 mm 6 mps 757 mmHg 80%
    19:00 -1°C° 0.8 mm 6 mps 757 mmHg 82%
    20:00 -1°C° 0.2 mm 6 mps 758 mmHg 83%
    21:00 -1°C° 0.2 mm 6 mps 758 mmHg 84%
    22:00 0°C° 0.2 mm 5 mps 758 mmHg 85%
    23:00 0°C° 0 mm 5 mps 758 mmHg 86%

    Day after tomorrow, 21 November, Wednesday

    Time Temperature Precipitation Wind Pressure Humidity
    00:00 -1°C° 0 mm 5 mps 758 mmHg 86%
    01:00 -1°C° 0 mm 4 mps 759 mmHg 86%
    02:00 -1°C° 0 mm 4 mps 759 mmHg 87%
    03:00 -2°C° 0 mm 4 mps 759 mmHg 87%
    04:00 -2°C° 0 mm 4 mps 759 mmHg 88%
    05:00 -2°C° 0 mm 4 mps 760 mmHg 88%
    06:00 -3°C° 0 mm 4 mps 760 mmHg 88%
    07:00 -3°C° 0 mm 4 mps 760 mmHg 89%
    08:00 -2°C° 0 mm 4 mps 760 mmHg 87%
    09:00 -2°C° 0 mm 4 mps 761 mmHg 86%
    10:00 -1°C° 0 mm 5 mps 761 mmHg 85%
    11:00 -1°C° 0 mm 4 mps 761 mmHg 84%
    12:00 0°C° 0 mm 4 mps 762 mmHg 83%
    13:00 +1°C° 0 mm 4 mps 762 mmHg 82%
    14:00 0°C° 0 mm 4 mps 762 mmHg 83%
    15:00 0°C° 0 mm 4 mps 762 mmHg 84%
    16:00 0°C° 0 mm 4 mps 762 mmHg 84%
    17:00 0°C° 0 mm 4 mps 762 mmHg 85%
    18:00 0°C° 0 mm 4 mps 763 mmHg 85%
    19:00 -1°C° 0 mm 4 mps 763 mmHg 85%
    20:00 -1°C° 0 mm 4 mps 763 mmHg 85%
    21:00 -1°C° 0 mm 4 mps 763 mmHg 85%
    22:00 -1°C° 0 mm 4 mps 763 mmHg 85%
    23:00 -1°C° 0 mm 4 mps 764 mmHg 86%

    22 November, Thursday

    Time Temperature Precipitation Wind Pressure Humidity
    00:00 -1°C° 0 mm 4 mps 764 mmHg 86%
    01:00 -2°C° 0 mm 4 mps 764 mmHg 86%
    02:00 -2°C° 0 mm 4 mps 764 mmHg 87%
    03:00 -2°C° 0 mm 4 mps 764 mmHg 88%
    04:00 -2°C° 0 mm 3 mps 764 mmHg 89%
    05:00 -2°C° 0 mm 3 mps 764 mmHg 89%
    06:00 -2°C° 0 mm 3 mps 764 mmHg 90%
    07:00 -2°C° 0 mm 3 mps 764 mmHg 90%
    08:00 -2°C° 0 mm 3 mps 764 mmHg 88%
    09:00 -1°C° 0 mm 3 mps 764 mmHg 86%
    10:00 -1°C° 0 mm 3 mps 764 mmHg 84%
    11:00 0°C° 0 mm 3 mps 764 mmHg 82%
    12:00 +1°C° 0 mm 3 mps 764 mmHg 81%
    13:00 +1°C° 0 mm 3 mps 764 mmHg 79%
    14:00 +1°C° 0 mm 3 mps 764 mmHg 81%
    15:00 +2°C° 0 mm 2 mps 764 mmHg 83%
    16:00 +1°C° 0 mm 2 mps 764 mmHg 84%
    17:00 +1°C° 0 mm 2 mps 764 mmHg 86%
    18:00 +1°C° 0 mm 2 mps 765 mmHg 87%
    19:00 -1°C° 0 mm 2 mps 765 mmHg 88%
    20:00 +1°C° 0 mm 2 mps 765 mmHg 87%
    21:00 +1°C° 0 mm 2 mps 765 mmHg 87%
    22:00 +1°C° 0 mm 2 mps 765 mmHg 86%
    23:00 +1°C° 0 mm 2 mps 765 mmHg 87%

    23 November, Friday

    Time Temperature Precipitation Wind Pressure Humidity
    00:00 +1°C° 0 mm 2 mps 765 mmHg 88%
    01:00 +2°C° 0 mm 1 mps 766 mmHg 89%
    02:00 +2°C° 0 mm 1 mps 766 mmHg 90%
    03:00 +2°C° 0 mm 1 mps 766 mmHg 91%
    04:00 +1°C° 0 mm 1 mps 766 mmHg 92%
    05:00 +1°C° 0 mm 1 mps 766 mmHg 93%
    06:00 +1°C° 0 mm 1 mps 766 mmHg 94%
    07:00 +1°C° 0 mm 1 mps 766 mmHg 95%
    08:00 +1°C° 0 mm 2 mps 766 mmHg 93%
    09:00 +1°C° 0 mm 2 mps 766 mmHg 91%
    10:00 +2°C° 0 mm 2 mps 766 mmHg 89%
    11:00 +3°C° 0 mm 2 mps 766 mmHg 86%
    12:00 +4°C° 0 mm 2 mps 766 mmHg 83%
    13:00 +5°C° 0 mm 2 mps 766 mmHg 81%
    14:00 +4°C° 0 mm 2 mps 766 mmHg 84%
    15:00 +4°C° 0 mm 2 mps 766 mmHg 88%
    16:00 +3°C° 0 mm 2 mps 765 mmHg 91%
    17:00 +2°C° 0 mm 2 mps 765 mmHg 91%
    18:00 +2°C° 0 mm 2 mps 765 mmHg 91%
    19:00 +2°C° 0 mm 2 mps 765 mmHg 91%
    20:00 +2°C° 0 mm 2 mps 765 mmHg 91%
    21:00 +2°C° 0 mm 2 mps 765 mmHg 91%
    22:00 +2°C° 0 mm 2 mps 765 mmHg 91%
    23:00 +2°C° 0 mm 2 mps 765 mmHg 91%

    24 November, Saturday

    Time Temperature Precipitation Wind Pressure Humidity
    00:00 +2°C° 0 mm 2 mps 764 mmHg 91%
    01:00 +3°C° 0 mm 1 mps 764 mmHg 91%
    02:00 +2°C° 0 mm 2 mps 764 mmHg 90%
    03:00 +2°C° 0 mm 2 mps 763 mmHg 90%
    04:00 +2°C° 0 mm 2 mps 763 mmHg 90%
    05:00 +2°C° 0 mm 2 mps 763 mmHg 90%
    06:00 +1°C° 0 mm 2 mps 762 mmHg 90%
    07:00 +1°C° 0 mm 2 mps 762 mmHg 90%
    08:00 +2°C° 0 mm 2 mps 762 mmHg 88%
    09:00 +3°C° 0 mm 2 mps 761 mmHg 86%
    10:00 +3°C° 0 mm 3 mps 761 mmHg 83%
    11:00 +3°C° 0 mm 3 mps 761 mmHg 82%
    12:00 +4°C° 0 mm 3 mps 760 mmHg 81%
    13:00 +5°C° 0 mm 3 mps 759 mmHg 80%
    14:00 +5°C° 0 mm 2 mps 759 mmHg 83%
    15:00 +5°C° 0 mm 2 mps 759 mmHg 86%
    16:00 +5°C° 0 mm 2 mps 758 mmHg 88%
    17:00 +5°C° 0 mm 2 mps 758 mmHg 89%
    18:00 +5°C° 0 mm 2 mps 758 mmHg 89%
    19:00 +5°C° 0 mm 2 mps 758 mmHg 90%
    20:00 +5°C° 0.1 mm 2 mps 758 mmHg 90%
    21:00 +4°C° 0.1 mm 2 mps 758 mmHg 90%
    22:00 +4°C° 0.1 mm 2 mps 758 mmHg 90%
    23:00 +4°C° 0.4 mm 2 mps 758 mmHg 91%
    Show more